Bilbao, Spain

3:18 PM CEST en Septiembre 18, 2018 (GMT +0200)
Bilbao

Tiempo Historia de LEBB - Febrero, 2018

Change the Weather History Date:

Miércoles, Febrero 14, 2018

  Actual Average Record
Temperature  
Temperatura media 52 ° F -  
Temperatura máxima 62 ° F 58 ° F 75 ° F (1998)
Temperatura mínima 43 ° F 42 ° F 30 ° F (1999)
Degree Days  
Grados día de calefacción 12    
Growing Degree Days 2 (Base 50)    
Moisture  
Punto de rocío 45 ° F    
Average Humidity 76    
Maximum Humidity 100    
Minimum Humidity 43    
Precipitación  
Precipitación 0.02 pul - - ()
Presión al nivel del mar  
Presión al nivel del mar 29.95 pul    
Viento  
Velocidad del viento 5 mph ()    
Velocidad máxima del viento 16 mph    
Max Gust Speed 31 mph    
Visibilidad 6.5 Millas    
Eventos Lluvia    
Averages and records for this station are not official NWS values.
T = Trace of Precipitation, MM = Missing Value Source: Averaged Metar Reports

Daily Weather History Graph

Daily Weather History Graph

Search for Another Location

Airport or City:

Astronomía

Feb. 14, 2018 Salida Puesta
Hora real 8:11 AM CET 6:41 PM CET
Crepúsculo civil 7:42 AM CET 7:10 PM CET
Crepúsculo náutico 7:08 AM CET 7:43 PM CET
Crepúsculo astronómico 6:35 AM CET 8:16 PM CET
Luna 7:24 AM CET (2/14) 5:26 PM CET (2/14)
Horas de luz 11h 28m
Horas de luz
10h 29m
Creciente menguante, 2% of the Moon is Illuminated
Feb 14
Creciente menguante
Feb 15
Nueva
Feb 23
Cuarto creciente
Mar 2
Luna llena
Mar 9
Cuarto menguante

Hourly Weather History & Observations

Hora (CET) Temp. Vientos helados Punto de rocío Humedad Presión Visibilidad Wind Dir Velocidad del viento Velocidad de ráfagas Precip Eventos Condiciones
12:00 AM 44.6 ° F - 42.8 ° F 93% 30.01 pul 6.2 mi Variable 2.3 mph - N/A Lluvia Lluvia débil
12:30 AM 44.6 ° F 42.2 ° F 42.8 ° F 93% 30.01 pul 3.7 mi SE 4.6 mph - N/A Lluvia Lluvia débil
1:00 AM 43 ° F - 42 ° F 95% 30.02 pul - ESE 5.8 mph - -   Precipitación desconocida
1:00 AM 44.6 ° F 42.2 ° F 42.8 ° F 93% 30.01 pul 3.7 mi ESE 4.6 mph - N/A Lluvia Lluvia débil
1:30 AM 44.6 ° F 43.1 ° F 42.8 ° F 93% 30.01 pul 5.0 mi Este 3.5 mph - N/A Lluvia Lluvia débil
2:00 AM 43 ° F - 42 ° F 94% 30.00 pul - Este 3.5 mph - -   Precipitación desconocida
2:00 AM 44.6 ° F - 42.8 ° F 93% 29.98 pul 3.7 mi ESE 2.3 mph - N/A Lluvia Lluvia débil
2:30 AM 44.6 ° F 42.2 ° F 42.8 ° F 93% 29.98 pul 5.0 mi Este 4.6 mph - N/A Lluvia Lluvia débil
3:00 AM 43 ° F - 42 ° F 93% 29.99 pul - ESE 4.6 mph - -   Precipitación desconocida
3:00 AM 44.6 ° F 43.1 ° F 42.8 ° F 93% 29.98 pul 5.6 mi ESE 3.5 mph - N/A   Muy nublado
3:30 AM 44.6 ° F 42.2 ° F 42.8 ° F 93% 29.98 pul 4.3 mi SE 4.6 mph - N/A   Nublado
4:00 AM 44 ° F - 42 ° F 89% 29.98 pul - ESE 4.6 mph - -  
4:00 AM 44.6 ° F 42.2 ° F 42.8 ° F 93% 29.98 pul 5.6 mi ESE 4.6 mph - N/A   Nublado
4:30 AM 44.6 ° F 42.2 ° F 42.8 ° F 93% 29.95 pul 5.0 mi ESE 4.6 mph - N/A   Muy nublado
5:00 AM 44 ° F - 42 ° F 92% 29.96 pul - ESE 4.6 mph - -  
5:00 AM 44.6 ° F 43.1 ° F 42.8 ° F 93% 29.95 pul 6.2 mi SE 3.5 mph - N/A   Muy nublado
5:30 AM 44.6 ° F 41.4 ° F 44.6 ° F 100% 29.95 pul 6.2 mi SE 5.8 mph - N/A   Muy nublado
6:00 AM 44 ° F - 42 ° F 90% 29.94 pul - ESE 5.8 mph - -  
6:00 AM 44.6 ° F 41.4 ° F 42.8 ° F 93% 29.92 pul 6.2 mi SE 5.8 mph - N/A   Muy nublado
6:30 AM 44.6 ° F - 42.8 ° F 93% 29.92 pul 6.2 mi Sin viento Sin viento - N/A   Muy nublado
7:00 AM 45 ° F - 43 ° F 89% 29.94 pul 9 mi ESE 4.6 mph - - Lluvia Lluvia débil
7:00 AM 46.4 ° F 44.3 ° F 44.6 ° F 93% 29.92 pul 6.2 mi ESE 4.6 mph - N/A   Muy nublado
7:30 AM 46.4 ° F 44.3 ° F 44.6 ° F 93% 29.92 pul 6.2 mi ESE 4.6 mph - N/A Lluvia Lluvia débil
8:00 AM 46 ° F - 44 ° F 88% 29.93 pul - ESE 5.8 mph - -   Precipitación desconocida
8:00 AM 46.4 ° F 43.5 ° F 44.6 ° F 93% 29.92 pul 6.2 mi ESE 5.8 mph - N/A Lluvia Lluvia débil
8:30 AM 48.2 ° F - 44.6 ° F 87% 29.92 pul 6.2 mi Este 10.4 mph - N/A Lluvia Lluvia débil
9:00 AM 47 ° F - 44 ° F 86% 29.92 pul - ESE 8.1 mph - -   Precipitación desconocida
9:00 AM 48.2 ° F - 44.6 ° F 87% 29.92 pul 6.2 mi SE 8.1 mph - N/A Lluvia Lluvia débil
9:30 AM 50.0 ° F - 46.4 ° F 87% 29.89 pul 6.2 mi ESE 9.2 mph - N/A Lluvia Lluvia débil
10:00 AM 50 ° F - 45 ° F 76% 29.91 pul 12 mi Este 9.2 mph - - Lluvia Lluvia débil
10:00 AM 51.8 ° F - 46.4 ° F 82% 29.89 pul 6.2 mi ESE 8.1 mph - N/A   Muy nublado
10:30 AM 53.6 ° F - 46.4 ° F 77% 29.89 pul 6.2 mi Variable 3.5 mph - N/A   Muy nublado
11:00 AM 56 ° F - 44 ° F 53% 29.92 pul - Sur 6.9 mph - -  
11:00 AM 55.4 ° F - 44.6 ° F 67% 29.89 pul 6.2 mi Sur 5.8 mph - N/A   Muy nublado
11:30 AM 57.2 ° F - 44.6 ° F 63% 29.92 pul 6.2 mi SSO 11.5 mph - N/A   Muy nublado
12:00 PM 57 ° F - 44 ° F 52% 29.94 pul - SO 16.1 mph - -  
12:00 PM 55.4 ° F - 46.4 ° F 72% 29.92 pul 6.2 mi SO 16.1 mph 31.1 mph N/A   Muy nublado
12:30 PM 57.2 ° F - 46.4 ° F 67% 29.92 pul 6.2 mi SO 13.8 mph 26.5 mph N/A   Muy nublado
1:00 PM 58 ° F - 44 ° F 50% 29.94 pul 12 mi SO 12.7 mph - -   Parcialmente nublado
1:00 PM 57.2 ° F - 46.4 ° F 67% 29.92 pul 6.2 mi SO 12.7 mph - N/A   Muy nublado
1:30 PM 57.2 ° F - 46.4 ° F 67% 29.92 pul 6.2 mi SSO 11.5 mph 23.0 mph N/A   Muy nublado
2:00 PM 58 ° F - 45 ° F 51% 29.91 pul - SSO 8.1 mph - -  
2:00 PM 59.0 ° F - 46.4 ° F 63% 29.89 pul 6.2 mi SSO 9.2 mph - N/A   Muy nublado
2:30 PM 59.0 ° F - 46.4 ° F 63% 29.92 pul 6.2 mi SSO 8.1 mph 21.9 mph N/A   Muy nublado
3:00 PM 61 ° F - 45 ° F 44% 29.91 pul - SSO 10.4 mph - -  
3:00 PM 60.8 ° F - 46.4 ° F 59% 29.89 pul 6.2 mi SO 9.2 mph 20.7 mph N/A   Muy nublado
3:30 PM 60.8 ° F - 46.4 ° F 59% 29.89 pul 6.2 mi SO 8.1 mph - N/A   Muy nublado
4:00 PM 62 ° F - 45 ° F 43% 29.92 pul 12 mi SO 9.2 mph - -   Nublado
4:00 PM 60.8 ° F - 46.4 ° F 59% 29.92 pul 6.2 mi SO 9.2 mph - N/A   Nublado
4:30 PM 62.6 ° F - 46.4 ° F 55% 29.92 pul 6.2 mi SO 6.9 mph - N/A   Muy nublado
5:00 PM 62 ° F - 46 ° F 46% 29.94 pul - SO 5.8 mph - -  
5:00 PM 62.6 ° F - 48.2 ° F 59% 29.92 pul 6.2 mi SO 4.6 mph - N/A   Muy nublado
5:30 PM 62.6 ° F - 48.2 ° F 59% 29.92 pul 6.2 mi SO 6.9 mph - N/A   Muy nublado
6:00 PM 62 ° F - 46 ° F 45% 29.94 pul - SSO 9.2 mph - -  
6:00 PM 60.8 ° F - 48.2 ° F 63% 29.92 pul 6.2 mi SO 9.2 mph - N/A   Parcialmente nublado
6:30 PM 60.8 ° F - 48.2 ° F 63% 29.95 pul 6.2 mi OSO 5.8 mph - N/A   Parcialmente nublado
7:00 PM 60 ° F - 47 ° F 52% 29.97 pul 12 mi Sur 3.5 mph - -   Nublado
7:00 PM 60.8 ° F - 48.2 ° F 63% 29.95 pul - Variable 3.5 mph - N/A   Despejado
7:30 PM 60.8 ° F - 48.2 ° F 63% 29.98 pul - Variable 2.3 mph - N/A   Despejado
8:00 PM 54 ° F - 48 ° F 73% 29.99 pul - Este 2.3 mph - -  
8:00 PM 55.4 ° F - 48.2 ° F 77% 29.98 pul - Variable 2.3 mph - N/A   Despejado
8:30 PM 55.4 ° F - 48.2 ° F 77% 29.98 pul - ESE 3.5 mph - N/A   Despejado
9:00 PM 53 ° F - 47 ° F 75% 30.00 pul - ESE 4.6 mph - -  
9:00 PM 53.6 ° F - 48.2 ° F 82% 29.98 pul - Este 4.6 mph - N/A   Despejado
9:30 PM 53.6 ° F - 48.2 ° F 82% 30.01 pul - Variable 2.3 mph - N/A   Despejado
10:00 PM 51 ° F - 47 ° F 80% 30.02 pul 9 mi ESE 5.8 mph - -   Nublado
10:00 PM 51.8 ° F - 48.2 ° F 88% 30.01 pul - ESE 5.8 mph - N/A   Despejado
10:30 PM 53.6 ° F - 48.2 ° F 82% 30.01 pul - Este 4.6 mph - N/A   Despejado
11:00 PM 52 ° F - 47 ° F 78% 30.04 pul - ESE 2.3 mph - -  
11:00 PM 51.8 ° F - 48.2 ° F 88% 30.01 pul - Variable 2.3 mph - N/A   Despejado